This is the latest recevied weather packets stored in our database for station/object N4WFF. If no packets are shown the sender has not sent any weather packets the latest 10 day(s).
| Time | Temp. | Humidity | Pressure | Rain* | Wind** | Luminosity | Snow |
|---|---|---|---|---|---|---|---|
| 1777635356 | 15.56° C | 95% | 1013 hPa | 0 mm | - | 13 W/m² | - |
| 1777635056 | 15.56° C | 95% | 1012.7 hPa | 0 mm | - | 17 W/m² | - |
| 1777634756 | 15.56° C | 95% | 1012.6 hPa | 0 mm | - | 10 W/m² | - |
| 1777634455 | 15.56° C | 95% | 1012.7 hPa | 0 mm | - | 7 W/m² | - |
| 1777634156 | 15.56° C | 95% | 1012.9 hPa | 0 mm | - | 3 W/m² | - |
| 1777633855 | 15.56° C | 95% | 1012.9 hPa | 0 mm | - | 2 W/m² | - |
| 1777633556 | 15.56° C | 95% | 1013 hPa | 0 mm | - | 1 W/m² | - |
| 1777633255 | 15.56° C | 95% | 1013.2 hPa | 0 mm | - | 1 W/m² | - |
| 1777632956 | 15.56° C | 95% | 1013.2 hPa | 0 mm | - | 0 W/m² | - |
| 1777632656 | 15.56° C | 95% | 1013 hPa | 0 mm | - | 0 W/m² | - |
| 1777632355 | 15.56° C | 95% | 1012.9 hPa | 0 mm | - | 0 W/m² | - |
| 1777632055 | 15.56° C | 95% | 1012.9 hPa | 0 mm | - | 0 W/m² | - |
| 1777631756 | 15.56° C | 95% | 1012.9 hPa | 0 mm | - | 0 W/m² | - |
| 1777631456 | 15.56° C | 95% | 1012.8 hPa | 0 mm | - | 0 W/m² | - |
| 1777631155 | 15.56° C | 95% | 1012.6 hPa | 0 mm | - | 0 W/m² | - |
| 1777630855 | 15.56° C | 95% | 1012.5 hPa | 0 mm | - | 0 W/m² | - |
| 1777630555 | 15.56° C | 95% | 1012.6 hPa | 0 mm | - | 0 W/m² | - |
| 1777630255 | 15.56° C | 95% | 1012.6 hPa | 0 mm | - | 0 W/m² | - |
| 1777629955 | 15.56° C | 95% | 1012.4 hPa | 0 mm | - | 0 W/m² | - |
| 1777629655 | 16.11° C | 95% | 1012.4 hPa | 0 mm | - | 0 W/m² | - |
| 1777629355 | 16.11° C | 95% | 1012.5 hPa | 0 mm | - | 0 W/m² | - |
| 1777629056 | 16.11° C | 95% | 1012.5 hPa | 0 mm | - | 0 W/m² | - |
| 1777628755 | 16.11° C | 95% | 1012.6 hPa | 0.25 mm | - | 0 W/m² | - |
| 1777628455 | 16.11° C | 95% | 1012.7 hPa | 0 mm | - | 0 W/m² | - |
| 1777628155 | 16.11° C | 95% | 1012.8 hPa | 0 mm | - | 0 W/m² | - |
* Rain latest hour (hover to see other rain measurements)
** Current wind speed in m/s (hover to see current wind gust speed)